Natchitoches, LA

9:55 PM CST on November 19, 2019 (GMT -0600)
Natchitoches Regional

Weather History for KIER - September, 2019

Change the Weather History Date:

Tuesday, September 10, 2019

  Actual Average Record
Temperature  
Mean Temperature 84 °F -  
Max Temperature 99 °F 90 °F 99 °F (2019)
Min Temperature 70 °F 68 °F 55 °F (2012)
Cooling Degree Days 19    
Growing Degree Days 34 (Base 50)    
Moisture  
Dew Point 71 °F    
Average Humidity 76    
Maximum Humidity 99    
Minimum Humidity 37    
Precipitation  
Precipitation 0.00 in - - ()
Sea Level Pressure  
Sea Level Pressure 30.10 in    
Wind  
Wind Speed 2 mph (SSE)    
Max Wind Speed 10 mph    
Max Gust Speed 21 mph    
Visibility 9 miles    
Events      
Averages and records for this station are not official NWS values.
T = Trace of Precipitation, MM = Missing Value Source: NWS Daily Summary

Daily Weather History Graph

Daily Weather History Graph

Search for Another Location

Airport or City:

Astronomy

Sep. 10, 2019 Rise Set
Actual Time 6:53 AM CDT 7:25 PM CDT
Civil Twilight 6:28 AM CDT 7:49 PM CDT
Nautical Twilight 5:59 AM CDT 8:18 PM CDT
Astronomical Twilight 5:30 AM CDT 8:47 PM CDT
Moon 5:47 PM CDT (9/10) 3:35 AM CDT (9/10)
Length of Visible Light 13h 20m
Length of Day
12h 31m
Waxing Gibbous, 89% of the Moon is Illuminated
Sep 10
Waxing Gibbous
Sep 13
Full
Sep 21
Last Quarter
Sep 28
New
Oct 5
First Quarter

Hourly Weather History & Observations

Time (CDT) Temp. Heat Index Dew Point Humidity Pressure Visibility Wind Dir Wind Speed Gust Speed Precip Events Conditions
12:15 AM 73.0 °F - 70.9 °F 93% 30.09 in 10.0 mi Calm Calm - N/A   Clear
12:35 AM 72.7 °F - 71.1 °F 95% 30.08 in 10.0 mi Calm Calm - N/A   Clear
12:55 AM 72.9 °F - 71.1 °F 94% 30.08 in 10.0 mi Calm Calm - N/A   Clear
1:15 AM 72.5 °F - 70.9 °F 95% 30.08 in 10.0 mi Calm Calm - N/A   Clear
1:35 AM 72.5 °F - 70.9 °F 95% 30.09 in 10.0 mi Calm Calm - N/A   Clear
1:55 AM 72.0 °F - 70.7 °F 96% 30.08 in 10.0 mi Calm Calm - N/A   Clear
2:15 AM 71.6 °F - 70.7 °F 97% 30.08 in 10.0 mi Calm Calm - N/A   Clear
2:35 AM 71.6 °F - 70.9 °F 98% 30.07 in 7.0 mi Calm Calm - N/A   Clear
2:55 AM 71.2 °F - 70.5 °F 98% 30.08 in 7.0 mi Calm Calm - N/A   Clear
3:15 AM 71.2 °F - 70.9 °F 99% 30.08 in 7.0 mi ESE 4.6 mph - N/A   Clear
3:35 AM 71.6 °F - 70.9 °F 98% 30.08 in 7.0 mi Calm Calm - N/A   Clear
3:55 AM 71.4 °F - 70.7 °F 98% 30.07 in 10.0 mi Calm Calm - N/A   Clear
4:15 AM 71.2 °F - 70.3 °F 97% 30.08 in 10.0 mi Calm Calm - N/A   Clear
4:35 AM 70.9 °F - 70.3 °F 98% 30.08 in 7.0 mi Calm Calm - N/A   Clear
4:55 AM 70.7 °F - 70.0 °F 98% 30.08 in 7.0 mi Calm Calm - N/A   Clear
5:15 AM 70.3 °F - 69.8 °F 98% 30.09 in 5.0 mi Calm Calm - N/A   Clear
5:35 AM 70.7 °F - 70.2 °F 98% 30.09 in 7.0 mi ESE 3.5 mph - N/A   Clear
5:55 AM 71.1 °F - 70.3 °F 98% 30.09 in 7.0 mi Calm Calm - N/A   Clear
6:15 AM 71.1 °F - 70.2 °F 97% 30.09 in 7.0 mi Calm Calm - N/A   Clear
6:35 AM 71.1 °F - 70.2 °F 97% 30.09 in 7.0 mi Calm Calm - N/A   Clear
6:55 AM 71.1 °F - 70.0 °F 96% 30.10 in 7.0 mi Calm Calm - N/A   Clear
7:15 AM 71.6 °F - 70.3 °F 96% 30.11 in 7.0 mi Calm Calm - N/A   Clear
7:35 AM 72.7 °F - 70.9 °F 94% 30.11 in 7.0 mi Calm Calm - N/A   Clear
7:55 AM 73.6 °F - 70.9 °F 91% 30.12 in 7.0 mi Calm Calm - N/A   Clear
8:15 AM 74.5 °F - 71.8 °F 91% 30.13 in 7.0 mi East 3.5 mph - N/A   Clear
8:35 AM 76.3 °F - 71.8 °F 86% 30.13 in 10.0 mi ESE 5.8 mph - N/A   Clear
8:55 AM 78.3 °F - 72.1 °F 81% 30.13 in 10.0 mi SE 5.8 mph - N/A   Clear
9:15 AM 79.5 °F - 72.5 °F 79% 30.14 in 10.0 mi East 3.5 mph - N/A   Clear
9:35 AM 82.9 °F 89.1 °F 73.6 °F 73% 30.14 in 10.0 mi East 4.6 mph - N/A   Clear
10:15 AM 86.2 °F 94.6 °F 74.5 °F 68% 30.14 in 10.0 mi ENE 3.5 mph - N/A   Clear
10:35 AM 86.9 °F 96.4 °F 75.2 °F 68% 30.14 in 10.0 mi ESE 4.6 mph - N/A   Clear
10:55 AM 88.7 °F 98.7 °F 75.0 °F 64% 30.14 in 10.0 mi South 4.6 mph - N/A   Clear
11:15 AM 90.5 °F 101.5 °F 75.2 °F 61% 30.14 in 10.0 mi ESE 4.6 mph - N/A   Clear
11:35 AM 90.1 °F 99.4 °F 73.9 °F 59% 30.14 in 10.0 mi South 5.8 mph - N/A   Scattered Clouds
11:55 AM 90.3 °F 98.7 °F 73.2 °F 57% 30.14 in 10.0 mi SE 6.9 mph - N/A   Mostly Cloudy
12:15 PM 91.2 °F 99.7 °F 73.2 °F 55% 30.13 in 10.0 mi SSW 6.9 mph - N/A   Scattered Clouds
12:35 PM 93.4 °F 102.1 °F 72.7 °F 51% 30.13 in 10.0 mi SSE 8.1 mph - N/A   Clear
12:55 PM 93.2 °F 101.7 °F 72.5 °F 51% 30.12 in 10.0 mi South 4.6 mph - N/A   Mostly Cloudy
1:15 PM 93.6 °F 102.5 °F 73.0 °F 51% 30.12 in 10.0 mi SSW 5.8 mph - N/A   Mostly Cloudy
1:35 PM 93.7 °F 101.7 °F 71.8 °F 49% 30.12 in 10.0 mi SSW 4.6 mph - N/A   Scattered Clouds
1:55 PM 92.8 °F 99.7 °F 71.1 °F 49% 30.11 in 10.0 mi Calm Calm - N/A   Mostly Cloudy
2:15 PM 92.8 °F 99.2 °F 70.5 °F 48% 30.11 in 10.0 mi Calm Calm - N/A   Mostly Cloudy
2:35 PM 93.6 °F 100.7 °F 71.1 °F 48% 30.10 in 10.0 mi ESE 4.6 mph - N/A   Scattered Clouds
2:55 PM 95.9 °F 102.5 °F 69.8 °F 43% 30.09 in 10.0 mi SW 4.6 mph - N/A   Scattered Clouds
3:15 PM 95.0 °F 101.9 °F 70.3 °F 45% 30.09 in 10.0 mi SSE 4.6 mph - N/A   Scattered Clouds
3:35 PM 96.4 °F 103.7 °F 70.5 °F 43% 30.08 in 10.0 mi East 8.1 mph - N/A   Clear
3:55 PM 95.4 °F 101.4 °F 69.8 °F 43% 30.08 in 10.0 mi ESE 5.8 mph - N/A   Clear
4:15 PM 97.9 °F 103.3 °F 68.4 °F 38% 30.08 in 10.0 mi Calm Calm - N/A   Scattered Clouds
4:35 PM 98.2 °F 103.4 °F 67.8 °F 37% 30.08 in 10.0 mi SSW 6.9 mph - N/A   Mostly Cloudy
4:55 PM 94.1 °F 97.9 °F 67.1 °F 41% 30.08 in 10.0 mi South 8.1 mph - N/A   Mostly Cloudy
5:15 PM 91.6 °F 96.7 °F 69.4 °F 48% 30.08 in 10.0 mi SSE 9.2 mph - N/A   Mostly Cloudy
5:35 PM 87.6 °F 93.1 °F 70.5 °F 57% 30.07 in 10.0 mi SE 10.4 mph 20.7 mph N/A   Mostly Cloudy
5:55 PM 86.5 °F 92.1 °F 71.2 °F 60% 30.06 in 10.0 mi Calm Calm - N/A   Scattered Clouds
6:15 PM 86.0 °F 92.6 °F 72.7 °F 64% 30.06 in 10.0 mi Calm Calm - N/A   Clear
6:35 PM 86.0 °F 93.4 °F 73.4 °F 66% 30.06 in 10.0 mi South 3.5 mph - N/A   Clear
6:55 PM 84.2 °F 91.6 °F 74.1 °F 72% 30.06 in 10.0 mi Calm Calm - N/A   Clear
7:15 PM 83.7 °F 89.7 °F 73.0 °F 70% 30.06 in 10.0 mi SW 5.8 mph - N/A   Clear
7:35 PM 82.6 °F 86.8 °F 70.7 °F 67% 30.06 in 10.0 mi WSW 6.9 mph - N/A   Clear
7:55 PM 80.8 °F 83.8 °F 68.9 °F 67% 30.08 in 10.0 mi SW 4.6 mph - N/A   Clear
8:35 PM 78.6 °F - 69.8 °F 74% 30.09 in 10.0 mi South 3.5 mph - N/A   Clear
8:55 PM 77.4 °F - 69.3 °F 76% 30.10 in 10.0 mi Calm Calm - N/A   Clear
9:15 PM 77.0 °F - 70.0 °F 79% 30.11 in 10.0 mi Calm Calm - N/A   Clear
9:35 PM 77.0 °F - 70.0 °F 79% 30.11 in 10.0 mi Calm Calm - N/A   Clear
9:55 PM 75.2 °F - 70.9 °F 86% 30.12 in 10.0 mi Calm Calm - N/A   Clear
10:15 PM 75.2 °F - 70.9 °F 86% 30.12 in 10.0 mi Calm Calm - N/A   Clear
10:35 PM 74.7 °F - 71.1 °F 88% 30.12 in 10.0 mi Calm Calm - N/A   Clear
10:55 PM 73.4 °F - 70.9 °F 92% 30.12 in 10.0 mi Calm Calm - N/A   Clear
11:15 PM 73.6 °F - 70.9 °F 91% 30.12 in 10.0 mi Calm Calm - N/A   Clear
11:35 PM 72.9 °F - 70.9 °F 93% 30.12 in 10.0 mi Calm Calm - N/A   Clear
11:55 PM 73.4 °F - 70.7 °F 91% 30.12 in 10.0 mi Calm Calm - N/A   Clear